owner,sensor,date,latitude,longitude,vertical_datum,wind_speed,wind_to_direction,wind_speed_of_gust,qcFlag 
COMPS,ioos:station:USF.COMPS:C13:1,2019-06-01T00:35:00,26.0630,-83.0730,1.3,2.41,136.36,3.08,'11111222,11111222,11111222' 
COMPS,ioos:station:USF.COMPS:C13:1,2019-06-01T01:35:00,26.0630,-83.0730,1.3,2.13,142.38,2.68,'11111222,11111222,11111222' 
COMPS,ioos:station:USF.COMPS:C13:1,2019-06-01T02:35:00,26.0630,-83.0730,1.3,1.74,148.8,2.14,'11111222,11111222,11111222' 
COMPS,ioos:station:USF.COMPS:C13:1,2019-06-01T03:35:00,26.0630,-83.0730,1.3,2.45,171.82,3.05,'11111222,11111222,11111222' 
COMPS,ioos:station:USF.COMPS:C13:1,2019-06-01T04:35:00,26.0630,-83.0730,1.3,2.39,175.85,3.12,'11111222,11111222,11111222' 
COMPS,ioos:station:USF.COMPS:C13:1,2019-06-01T05:35:00,26.0630,-83.0730,1.3,2.8,179.99,3.33,'11111222,11111222,11111222' 
COMPS,ioos:station:USF.COMPS:C13:1,2019-06-01T06:35:00,26.0630,-83.0730,1.3,2.07,158.32,2.76,'11111222,11111222,11111222' 
COMPS,ioos:station:USF.COMPS:C13:1,2019-06-01T07:35:00,26.0630,-83.0730,1.3,1.83,172.42,2.21,'11111222,11111222,11111222' 
COMPS,ioos:station:USF.COMPS:C13:1,2019-06-01T08:35:00,26.0630,-83.0730,1.3,1.65,156.37,2.16,'11111222,11111222,11111222' 
COMPS,ioos:station:USF.COMPS:C13:1,2019-06-01T09:35:00,26.0630,-83.0730,1.3,2.7,166.92,3.35,'11111222,11111222,11111222' 
COMPS,ioos:station:USF.COMPS:C13:1,2019-06-01T10:35:00,26.0630,-83.0730,1.3,2.28,175.09,3.17,'11111222,11111222,11111222' 
COMPS,ioos:station:USF.COMPS:C13:1,2019-06-01T11:35:00,26.0630,-83.0730,1.3,1.26,161.18,1.74,'11111222,11111222,11111222' 
COMPS,ioos:station:USF.COMPS:C13:1,2019-06-01T12:35:00,26.0630,-83.0730,1.3,1.71,159.35,2.31,'11111222,11111222,11111222' 
COMPS,ioos:station:USF.COMPS:C13:1,2019-06-01T13:35:00,26.0630,-83.0730,1.3,1.88,178.06,2.38,'11111222,11111222,11111222' 
COMPS,ioos:station:USF.COMPS:C13:1,2019-06-01T14:35:00,26.0630,-83.0730,1.3,1.46,153.86,2.1,'11111222,11111222,11111222' 
COMPS,ioos:station:USF.COMPS:C13:1,2019-06-01T15:35:00,26.0630,-83.0730,1.3,1.06,117.61,1.88,'11111222,11111222,11111222' 
COMPS,ioos:station:USF.COMPS:C13:1,2019-06-01T16:35:00,26.0630,-83.0730,1.3,2.08,104.32,2.82,'11111222,11111222,11111222' 
COMPS,ioos:station:USF.COMPS:C13:1,2019-06-01T17:35:00,26.0630,-83.0730,1.3,2.53,109.18,3.44,'11111222,11111222,11111222' 
COMPS,ioos:station:USF.COMPS:C13:1,2019-06-01T18:35:00,26.0630,-83.0730,1.3,2.69,97.96,3.83,'11111222,11111222,11111222' 
COMPS,ioos:station:USF.COMPS:C13:1,2019-06-01T19:35:00,26.0630,-83.0730,1.3,1.76,120.71,2.84,'11111222,11111222,11111222' 
COMPS,ioos:station:USF.COMPS:C13:1,2019-06-01T20:35:00,26.0630,-83.0730,1.3,2.27,167.31,2.9,'11111222,11111222,11111222' 
COMPS,ioos:station:USF.COMPS:C13:1,2019-06-01T21:35:00,26.0630,-83.0730,1.3,2.17,167.0,3.14,'11111222,11111222,11111222' 
COMPS,ioos:station:USF.COMPS:C13:1,2019-06-01T22:35:00,26.0630,-83.0730,1.3,1.31,218.05,2.25,'11111222,11111222,11111222' 
COMPS,ioos:station:USF.COMPS:C13:1,2019-06-01T23:35:00,26.0630,-83.0730,1.3,2.07,186.43,3.09,'11111222,11111222,11111222' 
COMPS,ioos:station:USF.COMPS:C13:1,2019-06-02T00:35:00,26.0630,-83.0730,1.3,1.14,232.38,1.91,'11111222,11111222,11111222' 
COMPS,ioos:station:USF.COMPS:C13:1,2019-06-02T01:35:00,26.0630,-83.0730,1.3,1.84,195.1,2.28,'11111222,11111222,11111222' 
COMPS,ioos:station:USF.COMPS:C13:1,2019-06-02T02:35:00,26.0630,-83.0730,1.3,0.68,94.49,1.01,'11111222,11111222,11111222' 
COMPS,ioos:station:USF.COMPS:C13:1,2019-06-02T03:35:00,26.0630,-83.0730,1.3,1.09,25.77,1.73,'11111222,11111222,11111222' 
COMPS,ioos:station:USF.COMPS:C13:1,2019-06-02T04:35:00,26.0630,-83.0730,1.3,1.87,63.73,2.38,'11111222,11111222,11111222' 
COMPS,ioos:station:USF.COMPS:C13:1,2019-06-02T05:35:00,26.0630,-83.0730,1.3,2.38,104.9,2.9,'11111222,11111222,11111222' 
COMPS,ioos:station:USF.COMPS:C13:1,2019-06-02T06:35:00,26.0630,-83.0730,1.3,2.68,107.97,3.45,'11111222,11111222,11111222' 
COMPS,ioos:station:USF.COMPS:C13:1,2019-06-02T07:35:00,26.0630,-83.0730,1.3,2.48,121.81,3.18,'11111222,11111222,11111222' 
COMPS,ioos:station:USF.COMPS:C13:1,2019-06-02T08:35:00,26.0630,-83.0730,1.3,2.78,150.5,3.39,'11111222,11111222,11111222' 
COMPS,ioos:station:USF.COMPS:C13:1,2019-06-02T09:35:00,26.0630,-83.0730,1.3,2.32,154.01,3.24,'11111222,11111222,11111222' 
COMPS,ioos:station:USF.COMPS:C13:1,2019-06-02T10:35:00,26.0630,-83.0730,1.3,2.76,137.66,3.47,'11111222,11111222,11111222' 
COMPS,ioos:station:USF.COMPS:C13:1,2019-06-02T11:35:00,26.0630,-83.0730,1.3,2.19,164.97,3.02,'11111222,11111222,11111222' 
COMPS,ioos:station:USF.COMPS:C13:1,2019-06-02T12:35:00,26.0630,-83.0730,1.3,1.89,145.53,2.44,'11111222,11111222,11111222' 
COMPS,ioos:station:USF.COMPS:C13:1,2019-06-02T13:35:00,26.0630,-83.0730,1.3,2.22,149.57,3.49,'11111222,11111222,11111222' 
COMPS,ioos:station:USF.COMPS:C13:1,2019-06-02T14:35:00,26.0630,-83.0730,1.3,2.72,161.56,3.46,'11111222,11111222,11111222' 
COMPS,ioos:station:USF.COMPS:C13:1,2019-06-02T15:35:00,26.0630,-83.0730,1.3,0.55,128.08,1.85,'11111222,11111222,11111222' 
COMPS,ioos:station:USF.COMPS:C13:1,2019-06-02T16:35:00,26.0630,-83.0730,1.3,1.0,94.6,2.03,'11111222,11111222,11111222' 
COMPS,ioos:station:USF.COMPS:C13:1,2019-06-02T17:35:00,26.0630,-83.0730,1.3,1.29,135.3,2.37,'11111222,11111222,11111222' 
COMPS,ioos:station:USF.COMPS:C13:1,2019-06-02T18:35:00,26.0630,-83.0730,1.3,0.98,146.15,1.8,'11111222,11111222,11111222' 
COMPS,ioos:station:USF.COMPS:C13:1,2019-06-02T19:35:00,26.0630,-83.0730,1.3,1.5,138.48,2.58,'11111222,11111222,11111222' 
COMPS,ioos:station:USF.COMPS:C13:1,2019-06-02T20:35:00,26.0630,-83.0730,1.3,0.96,138.82,1.94,'11111222,11111222,11111222' 
COMPS,ioos:station:USF.COMPS:C13:1,2019-06-02T21:35:00,26.0630,-83.0730,1.3,1.01,165.33,1.71,'11111222,11111222,11111222' 
COMPS,ioos:station:USF.COMPS:C13:1,2019-06-02T22:35:00,26.0630,-83.0730,1.3,1.0,207.91,1.85,'11111222,11111222,11111222' 
COMPS,ioos:station:USF.COMPS:C13:1,2019-06-02T23:35:00,26.0630,-83.0730,1.3,0.39,53.04,1.12,'11111222,11111222,11111222' 
COMPS,ioos:station:USF.COMPS:C13:1,2019-06-03T00:35:00,26.0630,-83.0730,1.3,0.32,267.62,0.72,'11111222,11111222,11111222' 
COMPS,ioos:station:USF.COMPS:C13:1,2019-06-03T01:35:00,26.0630,-83.0730,1.3,0.68,86.0,1.71,'11111222,11111222,11111222' 
COMPS,ioos:station:USF.COMPS:C13:1,2019-06-03T02:35:00,26.0630,-83.0730,1.3,0.55,89.05,1.34,'11111222,11111222,11111222' 
COMPS,ioos:station:USF.COMPS:C13:1,2019-06-03T03:35:00,26.0630,-83.0730,1.3,0.28,92.06,0.6,'11111222,11111222,11111222' 
COMPS,ioos:station:USF.COMPS:C13:1,2019-06-03T04:35:00,26.0630,-83.0730,1.3,0.71,284.35,1.25,'11111222,11111222,11111222' 
COMPS,ioos:station:USF.COMPS:C13:1,2019-06-03T05:35:00,26.0630,-83.0730,1.3,0.59,38.87,1.21,'11111222,11111222,11111222' 
COMPS,ioos:station:USF.COMPS:C13:1,2019-06-03T06:35:00,26.0630,-83.0730,1.3,1.51,25.26,2.15,'11111222,11111222,11111222' 
COMPS,ioos:station:USF.COMPS:C13:1,2019-06-03T07:35:00,26.0630,-83.0730,1.3,0.81,110.92,1.44,'11111222,11111222,11111222' 
COMPS,ioos:station:USF.COMPS:C13:1,2019-06-03T08:35:00,26.0630,-83.0730,1.3,0.9,117.53,1.52,'11111222,11111222,11111222' 
COMPS,ioos:station:USF.COMPS:C13:1,2019-06-03T09:35:00,26.0630,-83.0730,1.3,1.25,146.93,2.2,'11111222,11111222,11111222' 
COMPS,ioos:station:USF.COMPS:C13:1,2019-06-03T10:35:00,26.0630,-83.0730,1.3,4.02,178.11,4.85,'11111222,11111222,11111222' 
COMPS,ioos:station:USF.COMPS:C13:1,2019-06-03T11:35:00,26.0630,-83.0730,1.3,2.68,167.89,3.84,'11111222,11111222,11111222' 
COMPS,ioos:station:USF.COMPS:C13:1,2019-06-03T12:35:00,26.0630,-83.0730,1.3,1.23,154.17,1.98,'11111222,11111222,11111222' 
COMPS,ioos:station:USF.COMPS:C13:1,2019-06-03T13:35:00,26.0630,-83.0730,1.3,1.72,101.5,2.58,'11111222,11111222,11111222' 
COMPS,ioos:station:USF.COMPS:C13:1,2019-06-03T14:35:00,26.0630,-83.0730,1.3,0.8,44.66,1.32,'11111222,11111222,11111222' 
COMPS,ioos:station:USF.COMPS:C13:1,2019-06-03T15:35:00,26.0630,-83.0730,1.3,0.85,63.34,1.48,'11111222,11111222,11111222' 
COMPS,ioos:station:USF.COMPS:C13:1,2019-06-03T16:35:00,26.0630,-83.0730,1.3,0.55,129.36,1.46,'11111222,11111222,11111222' 
COMPS,ioos:station:USF.COMPS:C13:1,2019-06-03T17:35:00,26.0630,-83.0730,1.3,0.83,117.18,1.71,'11111222,11111222,11111222' 
COMPS,ioos:station:USF.COMPS:C13:1,2019-06-03T18:35:00,26.0630,-83.0730,1.3,0.48,2.8,1.27,'11111222,11111222,11111222' 
COMPS,ioos:station:USF.COMPS:C13:1,2019-06-03T19:35:00,26.0630,-83.0730,1.3,1.65,11.27,2.9,'11111222,11111222,11111222' 
COMPS,ioos:station:USF.COMPS:C13:1,2019-06-03T20:35:00,26.0630,-83.0730,1.3,1.01,337.88,1.69,'11111222,11111222,11111222' 
COMPS,ioos:station:USF.COMPS:C13:1,2019-06-03T21:35:00,26.0630,-83.0730,1.3,0.84,63.71,1.61,'11111222,11111222,11111222' 
COMPS,ioos:station:USF.COMPS:C13:1,2019-06-03T22:35:00,26.0630,-83.0730,1.3,1.05,349.46,1.84,'11111222,11111222,11111222' 
COMPS,ioos:station:USF.COMPS:C13:1,2019-06-03T23:35:00,26.0630,-83.0730,1.3,1.64,38.14,2.64,'11111222,11111222,11111222' 
COMPS,ioos:station:USF.COMPS:C13:1,2019-06-04T00:35:00,26.0630,-83.0730,1.3,0.98,342.61,1.87,'11111222,11111222,11111222' 
COMPS,ioos:station:USF.COMPS:C13:1,2019-06-04T01:35:00,26.0630,-83.0730,1.3,1.37,347.48,2.03,'11111222,11111222,11111222' 
COMPS,ioos:station:USF.COMPS:C13:1,2019-06-04T02:35:00,26.0630,-83.0730,1.3,1.93,4.73,2.62,'11111222,11111222,11111222' 
COMPS,ioos:station:USF.COMPS:C13:1,2019-06-04T03:35:00,26.0630,-83.0730,1.3,1.77,8.47,2.68,'11111222,11111222,11111222' 
COMPS,ioos:station:USF.COMPS:C13:1,2019-06-04T04:35:00,26.0630,-83.0730,1.3,1.2,31.62,2.16,'11111222,11111222,11111222' 
COMPS,ioos:station:USF.COMPS:C13:1,2019-06-04T05:35:00,26.0630,-83.0730,1.3,0.49,43.16,0.87,'11111222,11111222,11111222' 
COMPS,ioos:station:USF.COMPS:C13:1,2019-06-04T06:35:00,26.0630,-83.0730,1.3,1.59,43.81,2.33,'11111222,11111222,11111222' 
COMPS,ioos:station:USF.COMPS:C13:1,2019-06-04T07:35:00,26.0630,-83.0730,1.3,0.96,57.39,1.68,'11111222,11111222,11111222' 
COMPS,ioos:station:USF.COMPS:C13:1,2019-06-04T08:35:00,26.0630,-83.0730,1.3,1.12,40.03,1.62,'11111222,11111222,11111222' 
COMPS,ioos:station:USF.COMPS:C13:1,2019-06-04T09:35:00,26.0630,-83.0730,1.3,2.12,19.85,2.77,'11111222,11111222,11111222' 
COMPS,ioos:station:USF.COMPS:C13:1,2019-06-04T10:35:00,26.0630,-83.0730,1.3,1.25,28.2,1.75,'11111222,11111222,11111222' 
COMPS,ioos:station:USF.COMPS:C13:1,2019-06-04T11:35:00,26.0630,-83.0730,1.3,1.18,34.27,1.74,'11111222,11111222,11111222' 
COMPS,ioos:station:USF.COMPS:C13:1,2019-06-04T12:35:00,26.0630,-83.0730,1.3,1.32,48.48,2.13,'11111222,11111222,11111222' 
COMPS,ioos:station:USF.COMPS:C13:1,2019-06-04T13:35:00,26.0630,-83.0730,1.3,2.15,47.05,3.03,'11111222,11111222,11111222' 
COMPS,ioos:station:USF.COMPS:C13:1,2019-06-04T14:35:00,26.0630,-83.0730,1.3,2.39,58.4,3.23,'11111222,11111222,11111222' 
COMPS,ioos:station:USF.COMPS:C13:1,2019-06-04T15:35:00,26.0630,-83.0730,1.3,2.04,49.78,3.06,'11111222,11111222,11111222' 
COMPS,ioos:station:USF.COMPS:C13:1,2019-06-04T16:35:00,26.0630,-83.0730,1.3,1.06,77.59,1.81,'11111222,11111222,11111222' 
COMPS,ioos:station:USF.COMPS:C13:1,2019-06-04T17:35:00,26.0630,-83.0730,1.3,0.59,61.48,1.68,'11111222,11111222,11111222' 
COMPS,ioos:station:USF.COMPS:C13:1,2019-06-04T18:35:00,26.0630,-83.0730,1.3,0.95,61.47,1.73,'11111222,11111222,11111222' 
COMPS,ioos:station:USF.COMPS:C13:1,2019-06-04T19:35:00,26.0630,-83.0730,1.3,0.82,202.8,1.57,'11111222,11111222,11111222' 
COMPS,ioos:station:USF.COMPS:C13:1,2019-06-04T20:35:00,26.0630,-83.0730,1.3,1.05,38.75,1.86,'11111222,11111222,11111222' 
COMPS,ioos:station:USF.COMPS:C13:1,2019-06-04T21:35:00,26.0630,-83.0730,1.3,0.97,291.58,1.9,'11111222,11111222,11111222' 
COMPS,ioos:station:USF.COMPS:C13:1,2019-06-04T22:35:00,26.0630,-83.0730,1.3,1.52,295.46,2.24,'11111222,11111222,11111222' 
COMPS,ioos:station:USF.COMPS:C13:1,2019-06-04T23:35:00,26.0630,-83.0730,1.3,1.36,2.69,2.65,'11111222,11111222,11111222' 
COMPS,ioos:station:USF.COMPS:C13:1,2019-06-05T00:35:00,26.0630,-83.0730,1.3,1.8,349.59,2.59,'11111222,11111222,11111222' 
COMPS,ioos:station:USF.COMPS:C13:1,2019-06-05T01:35:00,26.0630,-83.0730,1.3,3.16,3.27,4.0,'11111222,11111222,11111222' 
COMPS,ioos:station:USF.COMPS:C13:1,2019-06-05T02:35:00,26.0630,-83.0730,1.3,4.19,39.0,5.71,'11111222,11111222,11111222' 
COMPS,ioos:station:USF.COMPS:C13:1,2019-06-05T03:35:00,26.0630,-83.0730,1.3,3.52,56.3,4.37,'11111222,11111222,11111222' 
COMPS,ioos:station:USF.COMPS:C13:1,2019-06-05T04:35:00,26.0630,-83.0730,1.3,2.89,76.97,3.78,'11111222,11111222,11111222' 
COMPS,ioos:station:USF.COMPS:C13:1,2019-06-05T05:35:00,26.0630,-83.0730,1.3,2.81,85.78,3.67,'11111222,11111222,11111222' 
COMPS,ioos:station:USF.COMPS:C13:1,2019-06-05T06:35:00,26.0630,-83.0730,1.3,2.15,117.57,3.02,'11111222,11111222,11111222' 
COMPS,ioos:station:USF.COMPS:C13:1,2019-06-05T07:35:00,26.0630,-83.0730,1.3,2.12,126.49,2.69,'11111222,11111222,11111222' 
COMPS,ioos:station:USF.COMPS:C13:1,2019-06-05T08:35:00,26.0630,-83.0730,1.3,2.33,147.56,2.98,'11111222,11111222,11111222' 
COMPS,ioos:station:USF.COMPS:C13:1,2019-06-05T09:35:00,26.0630,-83.0730,1.3,2.87,149.24,3.65,'11111222,11111222,11111222' 
COMPS,ioos:station:USF.COMPS:C13:1,2019-06-05T10:35:00,26.0630,-83.0730,1.3,2.22,175.52,3.07,'11111222,11111222,11111222' 
COMPS,ioos:station:USF.COMPS:C13:1,2019-06-05T11:35:00,26.0630,-83.0730,1.3,1.41,152.04,2.02,'11111222,11111222,11111222' 
COMPS,ioos:station:USF.COMPS:C13:1,2019-06-05T12:35:00,26.0630,-83.0730,1.3,1.04,140.37,1.69,'11111222,11111222,11111222' 
COMPS,ioos:station:USF.COMPS:C13:1,2019-06-05T13:35:00,26.0630,-83.0730,1.3,2.0,94.0,2.57,'11111222,11111222,11111222' 
COMPS,ioos:station:USF.COMPS:C13:1,2019-06-05T14:35:00,26.0630,-83.0730,1.3,1.93,103.63,2.78,'11111222,11111222,11111222' 
COMPS,ioos:station:USF.COMPS:C13:1,2019-06-05T15:35:00,26.0630,-83.0730,1.3,1.37,159.72,2.25,'11111222,11111222,11111222' 
COMPS,ioos:station:USF.COMPS:C13:1,2019-06-05T16:35:00,26.0630,-83.0730,1.3,2.68,137.14,3.56,'11111222,11111222,11111222' 
COMPS,ioos:station:USF.COMPS:C13:1,2019-06-05T17:35:00,26.0630,-83.0730,1.3,2.12,156.47,2.91,'11111222,11111222,11111222' 
COMPS,ioos:station:USF.COMPS:C13:1,2019-06-05T18:35:00,26.0630,-83.0730,1.3,1.86,162.52,2.71,'11111222,11111222,11111222' 
COMPS,ioos:station:USF.COMPS:C13:1,2019-06-05T19:35:00,26.0630,-83.0730,1.3,2.29,146.65,3.01,'11111222,11111222,11111222' 
COMPS,ioos:station:USF.COMPS:C13:1,2019-06-05T20:35:00,26.0630,-83.0730,1.3,1.62,154.59,2.41,'11111222,11111222,11111222' 
COMPS,ioos:station:USF.COMPS:C13:1,2019-06-05T21:35:00,26.0630,-83.0730,1.3,1.39,143.39,2.27,'11111222,11111222,11111222' 
COMPS,ioos:station:USF.COMPS:C13:1,2019-06-05T22:35:00,26.0630,-83.0730,1.3,1.57,210.76,2.6,'11111222,11111222,11111222' 
COMPS,ioos:station:USF.COMPS:C13:1,2019-06-05T23:35:00,26.0630,-83.0730,1.3,1.46,197.65,2.24,'11111222,11111222,11111222' 
COMPS,ioos:station:USF.COMPS:C13:1,2019-06-06T00:35:00,26.0630,-83.0730,1.3,0.99,218.54,1.65,'11111222,11111222,11111222' 
COMPS,ioos:station:USF.COMPS:C13:1,2019-06-06T01:35:00,26.0630,-83.0730,1.3,0.75,276.39,1.27,'11111222,11111222,11111222' 
COMPS,ioos:station:USF.COMPS:C13:1,2019-06-06T02:35:00,26.0630,-83.0730,1.3,0.49,74.96,1.34,'11111222,11111222,11111222' 
COMPS,ioos:station:USF.COMPS:C13:1,2019-06-06T03:35:00,26.0630,-83.0730,1.3,1.33,85.11,2.26,'11111222,11111222,11111222' 
COMPS,ioos:station:USF.COMPS:C13:1,2019-06-06T04:35:00,26.0630,-83.0730,1.3,1.57,91.95,2.28,'11111222,11111222,11111222' 
COMPS,ioos:station:USF.COMPS:C13:1,2019-06-06T05:35:00,26.0630,-83.0730,1.3,2.09,99.66,2.81,'11111222,11111222,11111222' 
COMPS,ioos:station:USF.COMPS:C13:1,2019-06-06T06:35:00,26.0630,-83.0730,1.3,2.11,105.12,2.89,'11111222,11111222,11111222' 
COMPS,ioos:station:USF.COMPS:C13:1,2019-06-06T07:35:00,26.0630,-83.0730,1.3,3.35,109.81,4.12,'11111222,11111222,11111222' 
COMPS,ioos:station:USF.COMPS:C13:1,2019-06-06T08:35:00,26.0630,-83.0730,1.3,3.03,122.13,4.01,'11111222,11111222,11111222' 
COMPS,ioos:station:USF.COMPS:C13:1,2019-06-06T09:35:00,26.0630,-83.0730,1.3,3.26,157.19,4.23,'11111222,11111222,11111222' 
COMPS,ioos:station:USF.COMPS:C13:1,2019-06-06T10:35:00,26.0630,-83.0730,1.3,4.73,155.35,5.8,'11111222,11111222,11111222' 
COMPS,ioos:station:USF.COMPS:C13:1,2019-06-06T11:35:00,26.0630,-83.0730,1.3,3.96,157.16,5.33,'11111222,11111222,11111222' 
COMPS,ioos:station:USF.COMPS:C13:1,2019-06-06T12:35:00,26.0630,-83.0730,1.3,4.58,169.41,5.4,'11111222,11111222,11111222' 
COMPS,ioos:station:USF.COMPS:C13:1,2019-06-06T13:35:00,26.0630,-83.0730,1.3,5.23,181.74,6.67,'11111222,11111222,11111222' 
COMPS,ioos:station:USF.COMPS:C13:1,2019-06-06T14:35:00,26.0630,-83.0730,1.3,5.84,183.75,6.95,'11111222,11111222,11111222' 
COMPS,ioos:station:USF.COMPS:C13:1,2019-06-06T15:35:00,26.0630,-83.0730,1.3,5.05,190.02,6.23,'11111222,11111222,11111222' 
COMPS,ioos:station:USF.COMPS:C13:1,2019-06-06T16:35:00,26.0630,-83.0730,1.3,4.67,188.6,5.83,'11111222,11111222,11111222' 
COMPS,ioos:station:USF.COMPS:C13:1,2019-06-06T17:35:00,26.0630,-83.0730,1.3,4.06,178.96,5.13,'11111222,11111222,11111222' 
COMPS,ioos:station:USF.COMPS:C13:1,2019-06-06T18:35:00,26.0630,-83.0730,1.3,3.74,179.98,4.66,'11111222,11111222,11111222' 
COMPS,ioos:station:USF.COMPS:C13:1,2019-06-06T19:35:00,26.0630,-83.0730,1.3,3.46,174.32,4.45,'11111222,11111222,11111222' 
COMPS,ioos:station:USF.COMPS:C13:1,2019-06-06T20:35:00,26.0630,-83.0730,1.3,2.3,188.94,3.11,'11111222,11111222,11111222' 
COMPS,ioos:station:USF.COMPS:C13:1,2019-06-06T21:35:00,26.0630,-83.0730,1.3,2.34,179.77,3.36,'11111222,11111222,11111222' 
COMPS,ioos:station:USF.COMPS:C13:1,2019-06-06T22:35:00,26.0630,-83.0730,1.3,2.32,177.82,3.03,'11111222,11111222,11111222' 
COMPS,ioos:station:USF.COMPS:C13:1,2019-06-06T23:35:00,26.0630,-83.0730,1.3,2.06,170.11,3.24,'11111222,11111222,11111222' 
COMPS,ioos:station:USF.COMPS:C13:1,2019-06-07T00:35:00,26.0630,-83.0730,1.3,2.89,167.74,3.73,'11111222,11111222,11111222' 
COMPS,ioos:station:USF.COMPS:C13:1,2019-06-07T01:35:00,26.0630,-83.0730,1.3,1.97,161.07,2.46,'11111222,11111222,11111222' 
COMPS,ioos:station:USF.COMPS:C13:1,2019-06-07T02:35:00,26.0630,-83.0730,1.3,2.15,168.98,3.01,'11111222,11111222,11111222' 
COMPS,ioos:station:USF.COMPS:C13:1,2019-06-07T03:35:00,26.0630,-83.0730,1.3,2.18,173.21,3.11,'11111222,11111222,11111222' 
COMPS,ioos:station:USF.COMPS:C13:1,2019-06-07T04:35:00,26.0630,-83.0730,1.3,2.88,170.51,4.23,'11111222,11111222,11111222' 
COMPS,ioos:station:USF.COMPS:C13:1,2019-06-07T05:35:00,26.0630,-83.0730,1.3,3.08,174.31,4.01,'11111222,11111222,11111222' 
COMPS,ioos:station:USF.COMPS:C13:1,2019-06-07T06:35:00,26.0630,-83.0730,1.3,4.03,164.81,4.88,'11111222,11111222,11111222' 
COMPS,ioos:station:USF.COMPS:C13:1,2019-06-07T07:35:00,26.0630,-83.0730,1.3,3.82,176.28,4.91,'11111222,11111222,11111222' 
COMPS,ioos:station:USF.COMPS:C13:1,2019-06-07T08:35:00,26.0630,-83.0730,1.3,4.04,185.19,5.17,'11111222,11111222,11111222' 
COMPS,ioos:station:USF.COMPS:C13:1,2019-06-07T09:35:00,26.0630,-83.0730,1.3,4.61,185.13,5.78,'11111222,11111222,11111222' 
COMPS,ioos:station:USF.COMPS:C13:1,2019-06-07T10:35:00,26.0630,-83.0730,1.3,5.52,192.49,6.5,'11111222,11111222,11111222' 
COMPS,ioos:station:USF.COMPS:C13:1,2019-06-07T11:35:00,26.0630,-83.0730,1.3,4.91,197.54,5.72,'11111222,11111222,11111222' 
COMPS,ioos:station:USF.COMPS:C13:1,2019-06-07T12:35:00,26.0630,-83.0730,1.3,4.88,209.21,5.75,'11111222,11111222,11111222' 
COMPS,ioos:station:USF.COMPS:C13:1,2019-06-07T13:35:00,26.0630,-83.0730,1.3,4.47,197.46,5.36,'11111222,11111222,11111222' 
COMPS,ioos:station:USF.COMPS:C13:1,2019-06-07T14:35:00,26.0630,-83.0730,1.3,4.65,196.17,5.88,'11111222,11111222,11111222' 
COMPS,ioos:station:USF.COMPS:C13:1,2019-06-07T15:35:00,26.0630,-83.0730,1.3,4.7,206.06,5.98,'11111222,11111222,11111222' 
COMPS,ioos:station:USF.COMPS:C13:1,2019-06-07T16:35:00,26.0630,-83.0730,1.3,5.16,203.39,6.05,'11111222,11111222,11111222' 
COMPS,ioos:station:USF.COMPS:C13:1,2019-06-07T17:35:00,26.0630,-83.0730,1.3,4.8,215.27,5.63,'11111222,11111222,11111222' 
COMPS,ioos:station:USF.COMPS:C13:1,2019-06-07T18:35:00,26.0630,-83.0730,1.3,3.96,214.8,4.81,'11111222,11111222,11111222' 
COMPS,ioos:station:USF.COMPS:C13:1,2019-06-07T19:35:00,26.0630,-83.0730,1.3,4.61,210.85,5.83,'11111222,11111222,11111222' 
COMPS,ioos:station:USF.COMPS:C13:1,2019-06-07T20:35:00,26.0630,-83.0730,1.3,4.38,208.9,5.31,'11111222,11111222,11111222' 
COMPS,ioos:station:USF.COMPS:C13:1,2019-06-07T21:35:00,26.0630,-83.0730,1.3,3.89,217.76,5.03,'11111222,11111222,11111222' 
COMPS,ioos:station:USF.COMPS:C13:1,2019-06-07T22:35:00,26.0630,-83.0730,1.3,4.31,233.86,5.29,'11111222,11111222,11111222' 
COMPS,ioos:station:USF.COMPS:C13:1,2019-06-07T23:35:00,26.0630,-83.0730,1.3,4.04,237.11,4.84,'11111222,11111222,11111222' 
COMPS,ioos:station:USF.COMPS:C13:1,2019-06-08T00:35:00,26.0630,-83.0730,1.3,3.4,231.79,4.46,'11111222,11111222,11111222' 
COMPS,ioos:station:USF.COMPS:C13:1,2019-06-08T01:35:00,26.0630,-83.0730,1.3,3.02,231.45,4.22,'11111222,11111222,11111222' 
COMPS,ioos:station:USF.COMPS:C13:1,2019-06-08T02:35:00,26.0630,-83.0730,1.3,3.18,219.8,4.26,'11111222,11111222,11111222' 
COMPS,ioos:station:USF.COMPS:C13:1,2019-06-08T03:35:00,26.0630,-83.0730,1.3,3.01,193.6,4.08,'11111222,11111222,11111222' 
COMPS,ioos:station:USF.COMPS:C13:1,2019-06-08T04:35:00,26.0630,-83.0730,1.3,3.9,187.98,4.68,'11111222,11111222,11111222' 
COMPS,ioos:station:USF.COMPS:C13:1,2019-06-08T05:35:00,26.0630,-83.0730,1.3,4.56,188.59,5.38,'11111222,11111222,11111222' 
COMPS,ioos:station:USF.COMPS:C13:1,2019-06-08T06:35:00,26.0630,-83.0730,1.3,5.23,192.92,6.56,'11111222,11111222,11111222' 
COMPS,ioos:station:USF.COMPS:C13:1,2019-06-08T07:35:00,26.0630,-83.0730,1.3,5.18,183.77,6.13,'11111222,11111222,11111222' 
COMPS,ioos:station:USF.COMPS:C13:1,2019-06-08T08:35:00,26.0630,-83.0730,1.3,5.48,185.77,6.62,'11111222,11111222,11111222' 
COMPS,ioos:station:USF.COMPS:C13:1,2019-06-08T09:35:00,26.0630,-83.0730,1.3,5.38,191.33,6.83,'11111222,11111222,11111222' 
COMPS,ioos:station:USF.COMPS:C13:1,2019-06-08T10:35:00,26.0630,-83.0730,1.3,5.72,188.57,7.31,'11111222,11111222,11111222' 
COMPS,ioos:station:USF.COMPS:C13:1,2019-06-08T11:35:00,26.0630,-83.0730,1.3,5.59,194.18,6.83,'11111222,11111222,11111222' 
COMPS,ioos:station:USF.COMPS:C13:1,2019-06-08T12:35:00,26.0630,-83.0730,1.3,5.47,194.83,7.14,'11111222,11111222,11111222' 
COMPS,ioos:station:USF.COMPS:C13:1,2019-06-08T13:35:00,26.0630,-83.0730,1.3,6.17,183.02,7.23,'11111222,11111222,11111222' 
COMPS,ioos:station:USF.COMPS:C13:1,2019-06-08T14:35:00,26.0630,-83.0730,1.3,6.31,190.74,7.41,'11111222,11111222,11111222' 
COMPS,ioos:station:USF.COMPS:C13:1,2019-06-08T15:35:00,26.0630,-83.0730,1.3,5.66,197.66,7.01,'11111222,11111222,11111222' 
COMPS,ioos:station:USF.COMPS:C13:1,2019-06-08T16:35:00,26.0630,-83.0730,1.3,5.89,195.31,7.17,'11111222,11111222,11111222' 
COMPS,ioos:station:USF.COMPS:C13:1,2019-06-08T17:35:00,26.0630,-83.0730,1.3,6.3,220.77,7.65,'11111222,11111222,11111222' 
COMPS,ioos:station:USF.COMPS:C13:1,2019-06-08T18:35:00,26.0630,-83.0730,1.3,6.68,222.74,8.11,'11111222,11111222,11111222' 
COMPS,ioos:station:USF.COMPS:C13:1,2019-06-09T00:35:00,26.0630,-83.0730,1.3,5.07,187.63,6.27,'11111222,11111222,11111222' 
COMPS,ioos:station:USF.COMPS:C13:1,2019-06-09T01:35:00,26.0630,-83.0730,1.3,4.83,182.94,5.84,'11111222,11111222,11111222' 
COMPS,ioos:station:USF.COMPS:C13:1,2019-06-09T02:35:00,26.0630,-83.0730,1.3,5.68,182.23,7.0,'11111222,11111222,11111222' 
COMPS,ioos:station:USF.COMPS:C13:1,2019-06-09T03:35:00,26.0630,-83.0730,1.3,5.68,184.02,6.83,'11111222,11111222,11111222' 
COMPS,ioos:station:USF.COMPS:C13:1,2019-06-09T04:35:00,26.0630,-83.0730,1.3,5.33,189.6,6.77,'11111222,11111222,11111222' 
COMPS,ioos:station:USF.COMPS:C13:1,2019-06-09T05:35:00,26.0630,-83.0730,1.3,5.63,184.75,6.85,'11111222,11111222,11111222' 
COMPS,ioos:station:USF.COMPS:C13:1,2019-06-09T06:35:00,26.0630,-83.0730,1.3,5.43,190.26,6.57,'11111222,11111222,11111222' 
COMPS,ioos:station:USF.COMPS:C13:1,2019-06-09T07:35:00,26.0630,-83.0730,1.3,4.87,188.85,5.87,'11111222,11111222,11111222' 